#timestamp,LO_Frequency,Hit,StdDev 
1650373215.7,286047000.5,N
1650373235.5,286046999.8,N
1650373255.4,286047002.7,N
1650373275.2,286047002.2,N
1650373295.0,286047001.5,N
1650373295.9,286047001.5,N
1650373315.8,286047001.6,N
1650373335.6,286046999.8,N
1650373355.5,286047004.0,N
1650373375.3,286047002.7,N
1650373395.1,286047000.3,N
1650373415.9,286046998.6,N
1650373435.7,286046999.0,N
1650373455.5,286047000.5,N
1650373475.4,286047002.3,N
1650373495.2,286047000.4,N
1650373515.1,286047000.0,N
1650373516.0,286047000.0,N
1650373535.8,286047000.1,N
1650373555.6,286046998.6,N
1650373575.5,286046998.4,N
1650373595.3,286046998.4,N
1650373615.2,286046999.9,N
1650373635.9,286047001.0,N
1650373655.7,286047000.1,N
1650373675.6,286047000.3,N
1650373695.4,286047003.1,N
1650373715.2,286047004.0,N
1650373735.1,286047004.3,N
1650373736.0,286047004.3,N
1650373755.8,286047001.4,N
1650373775.7,286047001.7,N
1650373795.5,286047001.9,N
1650373815.3,286047001.8,N
1650373835.2,286047003.5,N
1650373855.0,286047002.3,N
1650373855.9,286047002.3,N
1650373875.8,286047002.6,N
1650373895.6,286047001.2,N
1650373915.4,286046999.7,N
1650373935.3,286047000.9,N
1650373955.1,286047000.6,N
1650373975.9,286046998.7,N
1650373995.7,286046998.8,N
1650374015.6,286046999.2,N
1650374035.4,286046999.6,N
1650374055.2,286046999.4,N
1650374075.1,286046998.9,N
1650374076.0,286046998.9,N
1650374095.8,286046999.8,N
1650374115.6,286046999.8,N
1650374135.5,286047002.3,N
1650374155.3,286047002.0,N
1650374175.2,286047001.4,N
1650374195.9,286047001.5,N
1650374215.7,286047001.1,N
1650374235.6,286046999.3,N
1650374255.4,286046999.0,N
1650374275.2,286046997.7,N
1650374295.1,286046998.9,N
1650374296.0,286046998.9,N
1650374315.8,286046999.3,N
1650374335.7,286046998.9,N
1650374355.5,286046999.9,N
1650374375.3,286047002.7,N
1650374395.2,286047003.5,N
1650374415.0,286047005.9,Y
1650374415.9,286047005.9,P
1650374435.8,286047005.6,N
1650374455.6,286047003.0,N
1650374475.4,286047004.1,N
1650374495.3,286047003.8,N
1650374515.1,286047005.5,N
1650374535.8,286047003.0,N
1650374555.7,286047001.5,N
1650374575.5,286047002.2,N
1650374595.4,286047000.2,N
1650374615.2,286047000.6,N
1650374635.0,286047002.4,N
1650374635.9,286047002.4,N
1650374655.8,286047000.5,N
1650374675.6,286046999.9,N
1650374695.5,286047000.1,N
1650374715.3,286047002.2,N
1650374735.1,286046999.7,N
1650374755.9,286047002.6,N
1650374775.7,286047003.9,N
1650374795.5,286047001.7,N
1650374815.4,286047002.5,N
1650374835.2,286047004.4,N
1650374855.1,286047002.4,N
1650374856.0,286047002.4,N
1650374875.8,286047002.0,N
1650374895.6,286047002.4,N
1650374915.5,286047002.2,N
1650374935.3,286046999.8,N
1650374955.2,286046999.8,N
1650374975.9,286047002.1,N
1650374995.7,286047001.7,N
1650375015.6,286047002.5,N
1650375035.4,286047001.4,N
1650375055.2,286047001.8,N
1650375075.1,286047001.5,N
1650375076.0,286047001.5,N
1650375095.8,286047001.9,N
1650375115.7,286047002.2,N
1650375135.5,286047004.2,Y
1650375155.3,286047002.0,P
1650375175.2,286047000.3,N
1650375195.0,286047001.2,N
1650375195.9,286047001.2,N
1650375215.8,286047000.0,N
1650375235.6,286047000.6,N
1650375255.5,286046999.7,N
1650375275.3,286047002.6,Y
1650375295.1,286046999.9,P
1650375315.9,286047000.2,N
1650375335.7,286047000.9,N
1650375355.5,286047000.1,N
1650375375.4,286047001.1,N
1650375425.3,286047001.9,E
1650375435.2,286047000.7,N
1650375455.0,286046996.6,P
1650375455.9,286046996.6,N
1650375475.8,286046999.6,N
1650375495.6,286046997.1,N
1650375515.4,286046997.6,N
1650375535.3,286046997.5,N
1650375555.1,286046998.9,N
1650375575.8,286046998.1,N
1650375595.7,286046998.1,N
1650375615.5,286046999.3,N
1650375635.4,286046997.4,N
1650375655.2,286046997.8,N
1650375675.0,286046996.9,N
1650375675.9,286046996.9,N
1650375695.8,286046995.2,Y
1650375715.6,286046997.0,P
1650375735.5,286046996.6,P
1650375755.3,286046999.1,N
1650375775.1,286046998.8,N
1650375795.9,286047000.4,N
1650375815.7,286047000.8,N
1650375835.5,286047000.8,N
1650375855.4,286047000.7,N
1650375875.2,286047000.0,N
1650375895.1,286047002.5,N
1650375896.0,286047002.5,N
1650375915.8,286047002.4,N
1650375935.6,286047000.6,N
1650375955.5,286047000.1,N
1650375975.3,286047002.3,N
1650375995.1,286047002.7,N
1650376015.9,286047000.5,N
1650376035.7,286046999.0,N
1650376055.6,286046999.4,N
1650376075.4,286046999.1,N
1650376095.2,286046998.9,N
1650376115.1,286046999.1,N
1650376116.0,286046999.1,N
1650376135.8,286047000.7,N
1650376155.7,286047001.1,N
1650376175.5,286046998.9,N
1650376195.3,286046998.7,N
1650376215.2,286047001.2,N
1650376235.9,286047001.0,N
1650376255.7,286047000.3,N
1650376275.6,286047001.0,N
1650376295.4,286046998.2,N
1650376315.3,286046998.2,N
1650376335.1,286047001.2,N
1650376336.0,286047001.2,N
1650376355.8,286046998.6,N
1650376375.7,286046996.5,N
1650376395.5,286046999.2,N
1650376415.3,286046999.6,N
1650376435.2,286046998.1,N
1650376455.0,286047001.1,N
1650376455.9,286047001.1,N
1650376475.8,286047000.5,N
1650376495.6,286046998.5,N
1650376515.4,286046998.3,N
1650376535.3,286046998.5,N
1650376555.1,286046998.2,N
1650376575.8,286046998.3,N
1650376595.7,286046995.3,Y
1650376615.5,286046997.5,P
1650376635.4,286046999.1,N
1650376655.2,286046998.1,N
1650376675.0,286046998.3,N
1650376695.5,286046998.6,N
1650376715.3,286047000.3,N
1650376735.2,286047000.1,N
1650376755.0,286046999.9,N
1650376755.9,286046999.9,N
1650376775.8,286047000.7,N
1650376795.6,286046999.5,N
